TimeEST,TemperatureF,Dew PointF,Humidity,Sea Level PressureIn,VisibilityMPH,Wind Direction,Wind SpeedMPH,Gust SpeedMPH,PrecipitationIn,Events,Conditions,WindDirDegrees,DateUTC
12:07 AM,27.0,19.9,75,29.89,4.0,NNW,17.3,20.7,0.00,Snow,Light Snow,330,2012-11-24 05:07:00
12:55 AM,27.0,19.0,72,29.91,9.0,NNW,18.4,27.6,0.00,,Overcast,330,2012-11-24 05:55:00
1:55 AM,27.0,18.0,69,29.91,10.0,NNW,15.0,24.2,0.00,,Clear,330,2012-11-24 06:55:00
2:37 AM,27.0,19.0,72,29.92,10.0,NNW,12.7,21.9,N/A,,Mostly Cloudy,340,2012-11-24 07:37:00
2:55 AM,27.0,18.0,69,29.94,10.0,NNW,15.0,26.5,N/A,,Overcast,330,2012-11-24 07:55:00
3:55 AM,26.1,17.1,69,29.96,10.0,NNW,15.0,29.9,N/A,,Overcast,340,2012-11-24 08:55:00
4:02 AM,26.1,17.1,69,29.94,10.0,NNW,13.8,25.3,N/A,,Mostly Cloudy,340,2012-11-24 09:02:00
4:11 AM,26.1,16.0,66,29.93,10.0,NNW,18.4,26.5,N/A,,Overcast,330,2012-11-24 09:11:00
4:55 AM,25.0,16.0,69,29.98,10.0,NNW,15.0,24.2,N/A,,Overcast,340,2012-11-24 09:55:00
5:55 AM,24.1,15.1,69,29.99,10.0,North,13.8,21.9,N/A,,Overcast,350,2012-11-24 10:55:00
6:55 AM,23.0,12.9,65,30.00,10.0,North,10.4,18.4,N/A,,Overcast,360,2012-11-24 11:55:00
7:55 AM,23.0,12.9,65,30.03,10.0,North,13.8,-,N/A,,Overcast,350,2012-11-24 12:55:00
8:55 AM,21.9,10.9,63,30.05,10.0,NNW,12.7,20.7,N/A,,Overcast,340,2012-11-24 13:55:00
9:55 AM,23.0,12.0,63,30.06,10.0,North,12.7,19.6,N/A,,Overcast,350,2012-11-24 14:55:00
10:55 AM,24.1,12.9,62,30.06,10.0,North,8.1,-,N/A,,Overcast,350,2012-11-24 15:55:00
11:55 AM,24.1,14.0,65,30.05,10.0,NNW,9.2,-,N/A,,Overcast,330,2012-11-24 16:55:00
12:55 PM,25.0,16.0,69,30.04,10.0,North,11.5,-,N/A,,Overcast,350,2012-11-24 17:55:00
1:55 PM,25.0,16.0,69,30.03,10.0,NW,12.7,18.4,N/A,,Overcast,320,2012-11-24 18:55:00
2:55 PM,25.0,17.1,72,30.02,10.0,NW,10.4,-,N/A,,Overcast,320,2012-11-24 19:55:00
3:55 PM,25.0,17.1,72,30.03,10.0,NNW,11.5,-,N/A,,Overcast,330,2012-11-24 20:55:00
4:55 PM,25.0,17.1,72,30.04,10.0,NW,8.1,-,N/A,,Overcast,320,2012-11-24 21:55:00
5:55 PM,26.1,17.1,69,30.01,10.0,NNW,5.8,-,N/A,,Overcast,330,2012-11-24 22:55:00
6:55 PM,26.1,14.0,60,30.01,10.0,West,8.1,18.4,N/A,,Overcast,280,2012-11-24 23:55:00
7:55 PM,26.1,16.0,66,29.99,10.0,NW,5.8,-,N/A,,Overcast,310,2012-11-25 00:55:00
8:55 PM,24.1,16.0,71,29.97,10.0,ENE,4.6,-,N/A,,Overcast,60,2012-11-25 01:55:00
9:55 PM,24.1,16.0,71,29.97,10.0,ESE,3.5,-,N/A,,Overcast,110,2012-11-25 02:55:00
10:55 PM,24.1,16.0,71,29.94,10.0,Calm,Calm,-,N/A,,Overcast,0,2012-11-25 03:55:00
11:55 PM,23.0,15.1,72,29.94,10.0,East,4.6,-,N/A,,Overcast,80,2012-11-25 04:55:00